Regional Weather Roundup
Issued by NWS Bismarck, ND

Home | Current Version | Previous Version | Text Only | Print | Product List | Glossary On
Versions: 1 2 3 4 5 6 7 8 9 10 11 12 13 14 15 16 17 18 19 20 21 22 23 24 25 26 27 28 29 30 31 32 33 34 35 36 37 38 39 40 41 42 43 44 45 46 47 48 49 50
000
ASUS43 KBIS 040402
RWRBIS

NWR BROADCAST TEXT
NATIONAL WEATHER SERVICE BISMARCK ND
1100 PM CDT TUE MAY 03 2016

NOTE: "FAIR" INDICATES FEW OR NO CLOUDS BELOW 12,000 FEET WITH NO
SIGNIFICANT WEATHER AND/OR OBSTRUCTIONS TO VISIBILITY.


CITY           SKY/WX    TMP DP  RH WIND       PRES   REMARKS
WILLISTON      CLEAR     63  38  39 NE3       30.05R
MINOT          CLEAR     55  26  32 CALM      30.04R
MINOT AFB      CLEAR     53  29  39 E3        30.03R
BISMARCK       CLEAR     52  30  43 E9        30.04R
DICKINSON      CLEAR     57  37  47 NE6       30.06R
GARRISON         N/A     52  32  46 N3        30.05R
HETTINGER ARPT CLEAR     49  37  63 VRB3      30.09R
JAMESTOWN      CLEAR     50  27  40 N14       30.01R
CARRINGTON     FAIR      50  28  43 NE8       30.06R
HAZEN          FAIR      41  32  70 SE3       30.07R
LINTON         FAIR      54  32  43 NE8       30.05R
OAKES            N/A    N/A N/A N/A MISG        N/A
STANLEY        FAIR      54  39  58 CALM      30.08S
$$

CITY           SKY/WX    TMP DP  RH WIND       PRES   REMARKS
GRAND FORKS    CLEAR     47  31  53 N10       30.00R
GRAND FORKS AF CLEAR     48  31  52 N10       30.01R
DEVILS LAKE    CLEAR     49  31  49 NE10      30.05R
FARGO          CLEAR     54  26  34 N16       29.96R
CAVALIER       FAIR      50  34  53 N9        30.03S
GRAFTON        FAIR      48  32  53 N9        30.04R
GWINNER        FAIR      54  32  43 N14       29.98R
LANGDON        FAIR      41  32  70 N7        30.05S
$$

CITY           SKY/WX    TMP DP  RH WIND       PRES   REMARKS
ABERDEEN       CLEAR     52  32  46 N9        29.99R
MOBRIDGE       CLEAR     55  34  45 NE8       30.00R
BUFFALO          N/A     64  36  35 N9        30.04R
RAPID CITY     CLEAR     53  41  63 NW12      30.10R
GLASGOW        CLEAR     64  38  38 S7        30.04R
SIDNEY         CLEAR     59  39  47 CALM      30.05R
WOLF POINT     CLEAR     58  44  60 W3        30.03R
GLENDIVE       CLEAR     57  39  51 NE6       30.09S
MILES CITY     CLEAR     68  37  32 SE5       30.07R
BAKER          CLEAR     56  39  53 CALM      30.10R
$$

CITY           SKY/WX    TMP DP  RH WIND       PRES   REMARKS
BILLINGS       CLEAR     65  38  36 SE7       30.09S
GREAT FALLS    CLEAR     63  39  41 SE9       30.02S
$$





USA.gov is the U.S. government's official web portal to all federal, state and local government web resources and services.